Location: Unspecified
(0.0000°N, 0.0000°E)
Time: 13:29:49
(UTC+00:00)

deb Explorer IX - Visible Passes

Search period start: 01 August 2021 00:00
Search period end: 11 August 2021 00:00
Orbit: 543 x 1093 km, 38.8° (Epoch: 31 July)

Date Brightness Start Highest point End Pass type
(mag) Time Alt. Az. Time Alt. Az. Time Alt. Az.
01 Aug ? 19:18:59 10° NNW 19:24:29 24° NE 19:27:01 20° ENE visible
01 Aug ? 21:04:38 10° NW 21:08:15 32° WNW 21:08:15 32° WNW visible
02 Aug ? 18:54:50 10° N 19:00:14 24° NE 19:04:26 15° E visible
02 Aug ? 20:40:25 10° NW 20:45:41 52° WNW 20:45:41 52° WNW visible
03 Aug ? 18:30:42 10° N 18:35:58 24° NE 18:41:31 10° E visible
03 Aug ? 20:16:11 10° NW 20:23:10 75° SW 20:23:10 75° SW visible
04 Aug ? 19:51:59 10° NW 19:58:59 75° SW 20:00:42 54° SSE visible
05 Aug ? 19:27:47 10° NW 19:34:40 76° SW 19:38:17 32° SE visible
05 Aug ? 21:18:01 10° WSW 21:19:32 13° WSW 21:19:32 13° WSW visible
06 Aug ? 19:03:35 10° NW 19:10:21 76° SW 19:15:52 19° SE visible
06 Aug ? 20:53:45 10° WSW 20:57:08 16° SW 20:57:08 16° SW visible
07 Aug ? 18:39:25 10° NW 18:46:02 76° SW 18:53:17 10° SE visible
07 Aug ? 20:29:29 10° WSW 20:33:41 16° SW 20:34:45 16° SSW visible
08 Aug ? 05:37:37 10° SSW 05:42:09 37° SE 05:46:10 10° ENE visible
08 Aug ? 20:05:15 10° WSW 20:09:23 16° SW 20:12:21 13° S visible
09 Aug ? 05:13:21 10° SSW 05:18:03 38° SE 05:22:10 10° ENE visible
09 Aug ? 19:41:02 10° WSW 19:45:05 16° SW 19:49:17 10° S visible
10 Aug ? 04:50:29 17° SSW 04:53:56 39° SE 04:58:10 10° ENE visible
10 Aug ? 19:16:51 10° WSW 19:20:47 16° SW 19:24:53 10° S visible
